Regional Weather Roundup
Issued by NWS

Home | Current Version | Previous Version | Text Only | Print | Product List | Glossary Off
Versions: 1 2 3 4 5 6 7 8 9 10 11 12 13 14 15 16 17 18 19 20 21 22 23 24 25 26 27 28 29 30 31 32 33 34 35 36 37 38 39 40 41 42 43 44 45 46 47 48 49 50

000
ASUS43 KDTX 241310
RWRMI
MICHIGAN HOURLY REGIONAL WEATHER ROUNDUP
NATIONAL WEATHER SERVICE DETROIT/PONTIAC MI
ISSUED BY NATIONAL WEATHER SERVICE GRAND RAPIDS MI
900 AM EDT MON JUL 24 2017

NOTE: "FAIR" INDICATES FEW OR NO CLOUDS BELOW 12,000 FEET WITH NO
SIGNIFICANT WEATHER AND/OR OBSTRUCTION TO VISIBILITY.

MIZ047>049-052>055-059>063-066>070-074>076-081>083-241400-
SOUTHEAST LOWER MICHIGAN

CITY           SKY/WX    TMP DP  RH WIND       PRES   REMARKS
ADRIAN         CLOUDY    64  59  83 N9        29.94R
ALMA           PTSUNNY   64  55  71 N13G22    29.97R
ANN ARBOR      CLOUDY    64  57  78 NW13G25   29.92R
BAD AXE        LGT RAIN  60  59  96 N14       29.92R
DETROIT CITY   CLOUDY    66  57  72 N14       29.90R
DETROIT        CLOUDY    67  60  78 NW13      29.90R
FLINT          CLOUDY    63  56  78 N14       29.94R
GROSSE ILE     CLOUDY    68  59  72 N14       29.88S
HILLSDALE      CLOUDY    63  55  77 N10       29.94R
HOWELL         CLOUDY    64  56  77 N7G16     29.94R

CITY           SKY/WX    TMP DP  RH WIND       PRES   REMARKS
JACKSON        CLOUDY    63  55  75 N12       29.95R
LANSING        CLOUDY    62  54  74 N10       29.97R
MASON          CLOUDY    63  57  80 N13       29.96R
MONROE         CLOUDY    66  61  84 N9        29.90R
MT. CLEMENS    PTSUNNY   64  59  83 NW9       29.88R
PONTIAC        DRIZZLE   62  58  86 NW15G24   29.91R
PORT HOPE        N/A     63  59  87 MISG      29.89R
PORT HURON     CLOUDY    63  59  88 NW7       29.89R
TRI CITIES     CLOUDY    63  57  81 N16       29.96R
YPSILANTI      PTSUNNY   67  61  81 N14       29.92R
$$
MIZ043>046-050>051-056>058-064>065-071>073-077>080-241400-
SOUTHWEST LOWER MICHIGAN

CITY           SKY/WX    TMP DP  RH WIND       PRES   REMARKS
BATTLE CREEK   CLOUDY    64  60  87 N9G20     29.97R
BENTON HARBOR  CLOUDY    67  59  75 VRB7      29.97R
BIG RAPIDS     CLOUDY    61  53  74 N9        29.99S
COLDWATER      CLOUDY    65  62  90 N7        29.96R
HOLLAND        CLOUDY    65  58  78 N5        29.99R
KALAMAZOO      CLOUDY    66  58  75 N13       29.96S
MARSHALL       CLOUDY    64  60  86 N5        29.95R
MOUNT PLEASANT CLOUDY    63  54  71 N8        29.97R
MUSKEGON       PTSUNNY   65  56  72 N8        30.00R
STURGIS        CLOUDY    64  61  91 N5        29.96R
$$
MIZ016>042-241400-
NORTHERN LOWER MICHIGAN

CITY           SKY/WX    TMP DP  RH WIND       PRES   REMARKS
ALPENA         PTSUNNY   63  59  87 N13       29.98R
BEAVER ISLAND  SUNNY     63  55  74 N7        30.05R
BELLAIRE       SUNNY     63  53  70 N6        30.02R
CADILLAC       PTSUNNY   62  53  71 N7G17     30.01R
CHARLEVOIX     SUNNY     64  54  68 N12       30.06R
GAYLORD        MOSUNNY   60  52  74 N8        30.01R
HOUGHTON LAKE  CLOUDY    60  55  83 N9G18     29.99S
MANISTEE       MOSUNNY   64  55  72 N10       30.02R
OSCODA         CLOUDY    60  58  92 N13G23    29.94R
PELLSTON       SUNNY     63  53  70 N12       30.03S
TRAVERSE CITY  MOSUNNY   64  53  67 N9        30.02R
LUDINGTON      CLOUDY    64  56  77 N8        30.01S
$$
MIZ007>008-015-241400-
EASTERN UPPER MICHIGAN

CITY           SKY/WX    TMP DP  RH WIND       PRES   REMARKS
KINROSS        SUNNY     61  53  75 N10       30.04R
MACKINAC ISLAN SUNNY     63  56  78 N9G16     30.02S
NEWBERRY       SUNNY     57  56  97 N6        30.06S
S. S. MARIE    SUNNY     64  51  62 N6        30.03R
$$
MIZ004>006-011>014-085-241400-
CENTRAL UPPER MICHIGAN

CITY           SKY/WX    TMP DP  RH WIND       PRES   REMARKS
MANISTIQUE     SUNNY     59  54  84 N13       30.07R
ESCANABA       SUNNY     59  53  80 N6        30.08S
MENOMINEE      SUNNY     60  53  77 NE6       30.09R
SAWYER-GWINN   SUNNY     54  50  87 CALM      30.11R
$$
MIZ001>003-009>011-084-241400-
WESTERN UPPER MICHIGAN

CITY           SKY/WX    TMP DP  RH WIND       PRES   REMARKS
IRON MOUNTAIN  SUNNY     58  51  78 N6        30.09S
HOUGHTON       PTSUNNY   57  53  86 W8        30.10R
COPPER HARBOR    N/A     58  51  78 N6        30.08S
IRONWOOD       MOSUNNY   55  54  94 CALM      30.12S
$$

ABBREVIATIONS USED IN REMARKS
   TC - TEMPERATURE IN CELSIUS
  WCI - WIND CHILL INDEX
   HX - HEAT INDEX
  VSB - VISIBILITY




USA.gov is the U.S. government's official web portal to all federal, state and local government web resources and services.